Location: B
(0.0000°N, 0.0000°E)
Time: 20:55:23
(UTC+02:00)

Amateur Radio Satellites - All Passes

Search period start: 23 August 2014 20:25
Search period end: 24 August 2014 20:25
Location: B, 0.0000°N, 0.0000°E

Satellite Date Start Highest point End Downlink Frequencies (MHz)
Time Altitude Azimuth
Hamsat 23 Aug 20:37:42 20:39:32 13° 258° (WSW) 20:41:21 145.90 MHz
SO-67 23 Aug 20:45:00 20:48:28 78° 79° (E) 20:51:55 435.3500 MHz FM
JAS-2 23 Aug 21:04:13 21:08:59 18° 254° (WSW) 21:13:31 435.800 - 435.900 CW/SSB, 435.910 FM
STRAND 1 23 Aug 21:43:41 21:45:17 11° 283° (WNW) 21:46:52 ?
HO-68 23 Aug 21:52:50 21:58:47 29° 75° (ENE) 22:04:42 435.675 MHz FM
RS-15 23 Aug 22:13:45 22:24:16 41° 248° (WSW) 22:35:17 29.354 - 29.394 USB, Beacon 29.352 USB
UKube-1 23 Aug 23:21:24 23:25:39 53° 258° (WSW) 23:29:53 145.840 MHz, 145.915 MHz
Saudisat 1A 23 Aug 23:34:12 23:37:00 17° 112° (ESE) 23:39:48 436.775 MHz
Oscar 11 23 Aug 23:36:00 23:40:16 64° 258° (WSW) 23:44:32 145.825 FM, Beacon 2401.500 USB
HO-68 23 Aug 23:40:02 23:46:10 31° 255° (WSW) 23:52:17 435.675 MHz FM
FUNcube-1 23 Aug 23:40:13 23:44:06 37° 79° (ENE) 23:47:56 145.950 - 145.970 MHz USB
PANSAT 23 Aug 23:42:12 23:45:38 31° 30° (NNE) 23:49:06 not established
ISS 24 Aug 00:16:08 00:19:23 54° 235° (SW) 00:22:40 145.800 FM
AO-40 24 Aug 00:16:39 01:56:54 71° 237° (WSW) 08:34:20 Beacon 2401.320
KITSAT 1 24 Aug 01:03:21 01:11:29 89° 110° (ESE) 01:19:34 435.175 FM
Saudisat 1A 24 Aug 01:12:58 01:16:20 21° 292° (WNW) 01:19:41 436.775 MHz
PANSAT 24 Aug 01:22:16 01:25:45 33° 210° (SSW) 01:29:15 not established
Oscar 16 24 Aug 02:29:20 02:33:30 25° 103° (ESE) 02:37:39 437.025 USB, Beacon 2401.1428
JAS-1B 24 Aug 03:08:59 03:12:51 18° 102° (ESE) 03:16:36 435.800 - 435.900 CW/SSB
MaSat-1 24 Aug 03:17:20 03:21:03 64° 254° (WSW) 03:24:13 437.345 MHz
AO-Echo 24 Aug 03:24:32 03:28:57 41° 102° (ESE) 03:33:27 ?
Oscar 19 24 Aug 03:34:06 03:39:08 54° 282° (WNW) 03:44:11 437.125 CW, 437.150 USB
ITAMSAT 1 24 Aug 03:48:31 03:53:41 78° 103° (ESE) 03:58:54 435.822 SSB
Oscar 10/S400 24 Aug 03:52:20 06:07:25 68° 282° (WNW) 14:43:21 145.825 - 145.975 CW/USB, Beacon 145.810 USB
Gurwin Techsat 1B 24 Aug 03:59:51 04:04:41 37° 103° (ESE) 04:09:31 435.225 FM
Uribyol 2 24 Aug 04:00:33 04:05:42 69° 283° (WNW) 04:10:54 436.500 FM
Oscar 16 24 Aug 04:08:50 04:12:34 20° 283° (WNW) 04:16:19 437.025 USB, Beacon 2401.1428
AO-27 24 Aug 04:15:38 04:20:35 48° 283° (WNW) 04:25:35 436.795 MHz FM
TMSAT-1 24 Aug 04:56:03 05:01:18 70° 282° (WNW) 05:06:35 436.925 FM
JAS-1B 24 Aug 04:58:16 05:03:20 28° 285° (WNW) 05:08:09 435.800 - 435.900 CW/SSB
SO-50 24 Aug 05:20:44 05:25:08 74° 112° (ESE) 05:29:32 436.795 FM
OPAL 24 Aug 05:25:00 05:29:11 28° 76° (ENE) 05:33:22 ?
AO-7 24 Aug 05:35:56 05:43:56 54° 106° (ESE) 05:51:56 29.400 - 29.500 MHz
Gurwin Techsat 1B 24 Aug 05:41:44 05:44:22 14° 283° (WNW) 05:47:01 435.225 FM
Uosat F 24 Aug 05:46:25 05:51:20 61° 103° (ESE) 05:56:17 435.120 FM
Sapphire 24 Aug 06:07:19 06:12:14 36° 71° (ENE) 06:17:08 437.095 MHz 1200 baud AX-25 AFSK
UOSAT-12 24 Aug 06:24:23 06:27:17 17° 112° (ESE) 06:30:12 437.025 FM, 437.400 FM
PCSat 24 Aug 06:37:06 06:42:30 89° 71° (ENE) 06:47:55 145.825 MHz
JAS-2 24 Aug 06:51:05 06:55:13 21° 105° (ESE) 06:59:41 435.800 - 435.900 CW/SSB, 435.910 FM
OPAL 24 Aug 07:04:43 07:07:48 17° 256° (WSW) 07:10:53 ?
Hamsat 24 Aug 07:07:21 07:11:11 31° 101° (ESE) 07:14:59 145.90 MHz
AO-7 24 Aug 07:30:54 07:36:19 19° 287° (WNW) 07:41:47 29.400 - 29.500 MHz
RS-15 24 Aug 07:45:41 07:55:23 31° 112° (ESE) 08:04:39 29.354 - 29.394 USB, Beacon 29.352 USB
Sapphire 24 Aug 07:52:27 07:55:23 15° 250° (WSW) 07:58:20 437.095 MHz 1200 baud AX-25 AFSK
UOSAT-12 24 Aug 08:03:41 08:07:09 22° 293° (WNW) 08:10:39 437.025 FM, 437.400 FM
SO-67 24 Aug 08:29:55 08:33:09 39° 101° (E) 08:36:24 435.3500 MHz FM
STRAND 1 24 Aug 08:34:07 08:39:15 78° 257° (WSW) 08:44:21 ?
JAS-2 24 Aug 08:35:24 08:40:00 28° 281° (W) 08:45:01 435.800 - 435.900 CW/SSB, 435.910 FM
HO-68 24 Aug 09:44:48 09:50:17 24° 105° (ESE) 09:55:45 435.675 MHz FM
RS-15 24 Aug 09:56:35 10:07:22 47° 290° (WNW) 10:17:47 29.354 - 29.394 USB, Beacon 29.352 USB
KITSAT 1 24 Aug 11:21:14 11:24:17 12° 68° (ENE) 11:27:19 435.175 FM
PANSAT 24 Aug 11:29:38 11:33:10 33° 150° (SSE) 11:36:42 not established
HO-68 24 Aug 11:31:12 11:37:38 37° 285° (WNW) 11:44:08 435.675 MHz FM
UKube-1 24 Aug 11:31:22 11:35:22 38° 282° (WNW) 11:39:24 145.840 MHz, 145.915 MHz
Saudisat 1A 24 Aug 11:39:32 11:43:09 25° 68° (ENE) 11:46:45 436.775 MHz
Oscar 11 24 Aug 11:45:17 11:49:27 46° 282° (WNW) 11:53:38 145.825 FM, Beacon 2401.500 USB
FUNcube-1 24 Aug 11:50:11 11:54:40 58° 102° (ESE) 11:59:13 145.950 - 145.970 MHz USB
ISS 24 Aug 11:51:53 11:55:12 90° 355° (N) 11:58:31 145.800 FM
PANSAT 24 Aug 13:09:50 13:13:18 31° 330° (NNW) 13:16:45 not established
KITSAT 1 24 Aug 13:11:26 13:19:26 73° 250° (WSW) 13:27:28 435.175 FM
Saudisat 1A 24 Aug 13:20:10 13:22:28 14° 247° (WSW) 13:24:46 436.775 MHz
Oscar 19 24 Aug 14:29:52 14:33:53 23° 77° (ENE) 14:37:53 437.125 CW, 437.150 USB
ITAMSAT 1 24 Aug 14:47:32 14:49:43 13° 77° (ENE) 14:51:52 435.822 SSB
Uribyol 2 24 Aug 14:57:56 15:01:34 19° 77° (ENE) 15:05:11 436.500 FM
Oscar 16 24 Aug 15:02:21 15:07:25 64° 78° (ENE) 15:12:29 437.025 USB, Beacon 2401.1428
MaSat-1 24 Aug 15:06:38 15:10:28 77° 287° (WNW) 15:14:55 437.345 MHz
AO-27 24 Aug 15:12:19 15:16:44 28° 77° (ENE) 15:21:06 436.795 MHz FM
JAS-1B 24 Aug 15:13:03 15:21:35 38° 75° (ENE) 15:30:23 435.800 - 435.900 CW/SSB
AO-Echo 24 Aug 15:53:15 15:58:34 79° 258° (WSW) 16:03:46 ?
TMSAT-1 24 Aug 15:55:57 15:59:55 22° 77° (ENE) 16:03:51 436.925 FM
Oscar 19 24 Aug 16:09:11 16:12:57 21° 257° (WSW) 16:16:43 437.125 CW, 437.150 USB
ITAMSAT 1 24 Aug 16:24:07 16:28:56 38° 257° (WSW) 16:33:43 435.822 SSB
Uribyol 2 24 Aug 16:36:33 16:40:47 26° 257° (WSW) 16:44:59 436.500 FM
Gurwin Techsat 1B 24 Aug 16:38:00 16:43:19 77° 258° (WSW) 16:48:36 435.225 FM
AO-27 24 Aug 16:52:31 16:55:57 18° 257° (WSW) 16:59:23 436.795 MHz FM
JAS-1B 24 Aug 17:03:12 17:11:33 38° 257° (WSW) 17:20:23 435.800 - 435.900 CW/SSB
PCSat 24 Aug 17:32:01 17:35:41 19° 110° (ESE) 17:39:20 145.825 MHz
SO-50 24 Aug 17:33:43 17:38:28 58° 248° (WSW) 17:43:14 436.795 FM
TMSAT-1 24 Aug 17:35:22 17:39:33 24° 257° (WSW) 17:43:44 436.925 FM
OPAL 24 Aug 17:55:49 18:01:00 71° 104° (ESE) 18:06:09 ?
AO-7 24 Aug 18:02:01 18:10:25 86° 74° (ENE) 18:18:46 29.400 - 29.500 MHz
Uosat F 24 Aug 18:16:17 18:21:13 56° 257° (WSW) 18:26:07 435.120 FM
JAS-2 24 Aug 18:25:56 18:29:33 15° 79° (E) 18:33:00 435.800 - 435.900 CW/SSB, 435.910 FM
UOSAT-12 24 Aug 18:33:43 18:37:44 30° 68° (ENE) 18:41:41 437.025 FM, 437.400 FM
Sapphire 24 Aug 18:43:15 18:48:37 72° 289° (WNW) 18:53:58 437.095 MHz 1200 baud AX-25 AFSK
PCSat 24 Aug 19:14:14 19:18:50 29° 289° (WNW) 19:23:25 145.825 MHz
Hamsat 24 Aug 19:14:27 19:18:24 39° 79° (ENE) 19:22:22 145.90 MHz
RS-15 24 Aug 19:27:34 19:36:19 25° 69° (ENE) 19:45:17 29.354 - 29.394 USB, Beacon 29.352 USB
STRAND 1 24 Aug 19:29:58 19:32:59 16° 103° (ESE) 19:36:01 ?
JAS-2 24 Aug 20:07:06 20:14:29 59° 256° (WSW) 20:21:07 435.800 - 435.900 CW/SSB, 435.910 FM
SO-67 24 Aug 20:15:15 20:17:58 22° 79° (E) 20:20:41 435.3500 MHz FM
UOSAT-12 24 Aug 20:15:32 20:17:36 13° 248° (WSW) 20:19:39 437.025 FM, 437.400 FM
